EW7175 Weather Reports


Display with metric or nautical units.
time (UTC)temp
F
wind
direction
speed
MPH
gust
MPH
rain 1hr
in
rain 24hr
in
rain mn
in
humidity
%
barometer
mb
20260510000047 88 306 0.0 0.0 0.00 0.00 0.00 64 1006.3
20260509234537 89 306 0.0 0.0 0.00 0.00 0.00 63 1006.1
20260509233036 89 306 0.0 0.0 0.00 0.00 0.00 63 1006.2
20260509231540 89 306 0.0 0.0 0.00 0.00 0.00 64 1006.1
20260509230036 90 306 0.0 1.0 0.00 0.00 0.00 60 1006.0
20260509224535 91 306 0.0 2.0 0.00 0.00 0.00 56 1005.9
20260509223033 91 309 1.0 3.0 0.00 0.00 0.00 56 1006.0
20260509221533 92 284 1.0 7.0 0.00 0.00 0.00 54 1005.8
20260509220032 92 286 1.0 4.0 0.00 0.00 0.00 56 1005.9
20260509214527 92 302 1.0 5.0 0.00 0.00 0.00 56 1005.8
20260509213029 91 264 3.0 7.0 0.00 0.00 0.00 59 1005.8
20260509211521 91 244 0.0 3.0 0.00 0.00 0.00 59 1006.0
20260509210019 90 156 1.0 3.0 0.00 0.00 0.00 61 1006.1
20260509204515 90 161 0.0 2.0 0.00 0.00 0.00 64 1006.4
20260509203016 89 258 0.0 0.0 0.00 0.00 0.00 63 1006.6
20260509201509 90 292 0.0 0.0 0.00 0.00 0.00 63 1006.7
20260509200008 89 271 0.0 0.0 0.00 0.00 0.00 66 1006.9
20260509194507 89 317 0.0 0.0 0.00 0.00 0.00 66 1007.0
20260509193003 89 20 0.0 0.0 0.00 0.00 0.00 66 1007.2
20260509191608 87 307 2.0 5.0 0.00 0.00 0.00 69 1007.5
20260509190058 87 299 0.0 0.0 0.00 0.00 0.00 69 1007.4
20260509184601 86 360 0.0 0.0 0.00 0.00 0.00 68 1007.7
20260509183059 86 235 0.0 0.0 0.00 0.00 0.00 70 1008.0
20260509181554 86 166 0.0 0.0 0.00 0.00 0.00 72 1008.1
20260509180052 85 190 0.0 0.0 0.00 0.00 0.00 73 1008.4
20260509174614 85 162 0.0 0.0 0.00 0.00 0.00 74 1008.7
20260509173053 85 178 0.0 0.0 0.00 0.00 0.00 75 1008.5
20260509171547 85 134 0.0 0.0 0.00 0.00 0.00 76 1008.4
20260509170044 83 163 0.0 0.0 0.00 0.00 0.00 76 1008.5
20260509164539 81 184 0.0 0.0 0.00 0.00 0.00 83 1008.4
20260509163040 80 177 0.0 0.0 0.00 0.00 0.00 85 1008.5
20260509161534 79 316 0.0 0.0 0.00 0.00 0.00 84 1008.8
20260509160033 79 65 0.0 0.0 0.00 0.00 0.00 85 1009.0
20260509154531 79 65 0.0 0.0 0.00 0.00 0.00 85 1009.0
20260509153042 79 65 0.0 0.0 0.00 0.00 0.00 86 1009.2
20260509151528 78 65 0.0 0.0 0.00 0.00 0.00 87 1009.0
20260509150025 78 65 0.0 0.0 0.00 0.00 0.00 88 1008.8
20260509144529 77 66 0.0 0.0 0.00 0.00 0.00 91 1008.7
20260509143021 77 66 0.0 0.0 0.00 0.00 0.00 92 1008.5
20260509141519 76 66 0.0 0.0 0.00 0.00 0.00 93 1008.4
20260509140017 76 67 0.0 0.0 0.00 0.00 0.00 94 1008.1
20260509134517 75 67 0.0 0.0 0.00 0.00 0.00 95 1008.4
20260509133015 75 67 0.0 0.0 0.00 0.00 0.00 95 1008.6
20260509131514 75 42 0.0 0.0 0.00 0.00 0.00 96 1009.0
20260509130027 74 42 0.0 0.0 0.00 0.00 0.00 96 1009.1
20260509124509 74 42 0.0 0.0 0.00 0.00 0.00 96 1008.9
20260509123008 74 34 0.0 0.0 0.00 0.00 0.00 96 1008.8
20260509121511 74 34 0.0 0.0 0.00 0.00 0.00 96 1008.5
20260509120007 74 30 0.0 0.0 0.00 0.00 0.00 95 1008.2
20260509114507 74 30 0.0 0.0 0.00 0.00 0.00 95 1008.2
20260509113006 74 30 0.0 0.0 0.00 0.00 0.00 95 1008.5
20260509111506 74 30 0.0 0.0 0.00 0.00 0.00 96 1008.6
20260509110005 74 30 0.0 0.0 0.00 0.00 0.00 96 1008.6
20260509104509 74 24 0.0 0.0 0.00 0.00 0.00 95 1008.5
20260509103004 74 209 0.0 0.0 0.00 0.00 0.00 95 1008.3
20260509101509 74 209 0.0 0.0 0.00 0.00 0.00 95 1008.0
20260509100002 74 205 0.0 0.0 0.00 0.00 0.00 95 1007.4
20260509094501 74 205 0.0 0.0 0.00 0.00 0.00 95 1007.3
20260509093100 74 205 0.0 0.0 0.00 0.00 0.00 95 1007.9
20260509091607 74 205 0.0 0.0 0.00 0.00 0.00 95 1008.0
20260509090106 74 205 0.0 0.0 0.00 0.00 0.00 94 1008.2
20260509084602 74 205 0.0 0.0 0.00 0.00 0.00 94 1008.1
20260509083102 74 205 0.0 0.0 0.00 0.00 0.00 94 1008.3
20260509081557 74 205 0.0 0.0 0.00 0.00 0.00 94 1008.1
20260509080059 74 205 0.0 0.0 0.00 0.00 0.00 94 1007.8
20260509074557 74 204 0.0 0.0 0.00 0.00 0.00 94 1008.0
20260509073055 74 205 0.0 0.0 0.00 0.00 0.00 94 1008.0
20260509071553 74 205 0.0 0.0 0.00 0.00 0.00 94 1008.1
20260509070052 74 205 0.0 0.0 0.00 0.00 0.00 94 1008.0
20260509064550 74 205 0.0 0.0 0.00 0.00 0.00 94 1008.2
20260509063048 74 205 0.0 0.0 0.00 0.00 0.00 94 1008.3
20260509061547 74 205 0.0 0.0 0.00 0.00 0.00 94 1008.5
20260509060059 74 205 0.0 0.0 0.00 0.00 0.00 94 1008.7
20260509054540 74 205 0.0 0.0 0.00 0.00 0.00 94 1008.6
20260509053059 74 205 0.0 0.0 0.00 0.00 0.00 94 1008.8
20260509051540 74 205 0.0 0.0 0.00 0.00 0.00 94 1008.6
20260509050027 74 205 0.0 0.0 0.00 0.00 0.00 94 1008.7
20260509044526 74 204 0.0 0.0 0.00 0.00 0.00 93 1008.7
20260509043027 74 204 0.0 0.0 0.00 0.00 0.00 93 1008.9
20260509041525 74 204 0.0 0.0 0.00 0.00 0.00 93 1008.8
20260509040030 73 204 0.0 0.0 0.00 0.00 0.00 93 1008.4
20260509034524 73 54 0.0 0.0 0.00 0.00 0.00 93 1008.3
20260509033023 73 54 0.0 0.0 0.00 0.00 0.00 93 1008.2
20260509031529 73 54 0.0 0.0 0.00 0.00 0.00 93 1008.4
20260509030040 73 54 0.0 0.0 0.00 0.00 0.00 93 1008.3
20260509024521 74 54 0.0 0.0 0.00 0.00 0.00 92 1008.1
20260509023027 74 51 0.0 0.0 0.00 0.00 0.00 92 1008.0
20260509021533 74 51 0.0 0.0 0.00 0.00 0.00 92 1007.8
20260509020020 74 52 0.0 0.0 0.00 0.00 0.00 91 1007.7
20260509014519 74 53 0.0 0.0 0.00 0.00 0.00 91 1007.6
20260509013019 74 53 0.0 0.0 0.00 0.00 0.00 91 1007.7
20260509011519 74 53 0.0 0.0 0.00 0.00 0.00 91 1007.7
20260509010018 74 53 0.0 0.0 0.00 0.00 0.00 90 1007.5
20260509004524 74 53 0.0 0.0 0.00 0.00 0.00 90 1007.3
20260509003017 74 44 0.0 0.0 0.00 0.00 0.00 90 1007.2
20260509001515 75 45 0.0 0.0 0.00 0.00 0.00 89 1007.3